Location: Buckeye Ditch
(40.9104°N, 122.9517°W)
Time: 14:48:04
(UTC+00:00)

A-11 Canister half - Pass Details

Date: 25 May 2025
Orbit: 1515 x 1684 km, 47.2° (Epoch: 14 June)

Event Time Altitude Azimuth Distance (km) Brightness Sun altitude
Rises 10:04:53 0° 287° (WNW) 4,731 11.4 -22.4°
Reaches altitude 10° 10:08:02 10° 290° (WNW) 3,728 10.9 -22.1°
Maximum altitude 10:17:21 64° 12° (NNE) 1,660 9.3 -21.2°
Drops below altitude 10° 10:26:31 10° 93° (E) 3,673 11.4 -20.3°
Sets 10:29:36 0° 97° (E) 4,658 11.9 -20.0°
